This demonstration page uses our WeatherBlox Daily Observations layout. Learn more.

Left ArrowRight Arrow

Hourly Observations for October 17, 2022

Temp ( °F °C ) Dew Point ( °F °C ) Humidity (%) Winds ( mph kmh ) Pressure ( in mb ) Visibility ( mi km ) Precip ( " mm )
12:15 am 00:15 Clear 59 15 54 12 82 82 S 5 7 29.84 1010 10 16 0.00 0.00
12:35 am 00:35 Partly Cloudy 59 15 54 12 82 82 SSW 3 6 29.84 1010 10 16 0.00 0.00
12:55 am 00:55 Partly Cloudy 59 15 54 12 82 82 S 5 7 29.83 1010 10 16 0.00 0.00
1:15 am 01:15 Clear 59 15 54 12 82 82 SSW 5 7 29.82 1010 10 16 0.00 0.00
1:35 am 01:35 Clear 57 14 54 12 88 88 SSW 5 7 29.82 1010 10 16 0.00 0.00
1:55 am 01:55 Clear 57 14 54 12 88 88 SSW 3 6 29.81 1010 10 16 0.00 0.00
2:15 am 02:15 Clear 57 14 54 12 88 88 S 5 7 29.80 1009 10 16 0.00 0.00
2:35 am 02:35 Clear 57 14 54 12 88 88 S 5 7 29.80 1009 10 16 0.00 0.00
2:55 am 02:55 Clear 55 13 54 12 94 94 S 3 6 29.79 1009 10 16 0.00 0.00
3:15 am 03:15 Clear 55 13 54 12 94 94 SSW 5 7 29.79 1009 10 16 0.00 0.00
3:35 am 03:35 Clear 55 13 54 12 94 94 SSW 5 7 29.78 1008 10 16 0.00 0.00
3:55 am 03:55 Clear 55 13 54 12 94 94 Calm 29.77 1008 10 16 0.00 0.00
4:15 am 04:15 Clear 54 12 54 12 100 100 SSW 3 6 29.77 1008 10 16 0.00 0.00
4:35 am 04:35 Clear 54 12 54 12 100 100 SW 3 6 29.76 1008 10 16 0.00 0.00
4:55 am 04:55 Clear 54 12 54 12 100 100 S 3 6 29.75 1008 10 16 0.00 0.00
5:15 am 05:15 Partly Cloudy 54 12 54 12 100 100 SSW 3 6 29.76 1008 10 16 0.00 0.00
5:35 am 05:35 Partly Cloudy 54 12 54 12 100 100 Calm 29.75 1008 10 16 0.00 0.00
5:55 am 05:55 Partly Cloudy 54 12 54 12 100 100 SSW 3 6 29.75 1008 10 16 0.00 0.00
6:15 am 06:15 Partly Cloudy 54 12 54 12 100 100 WSW 5 7 29.76 1008 10 16 0.00 0.00
6:35 am 06:35 Mostly Cloudy 54 12 54 12 100 100 SW 5 7 29.75 1008 10 16 0.00 0.00
6:55 am 06:55 Cloudy 54 12 54 12 100 100 SW 5 7 29.76 1008 10 16 0.00 0.00
7:15 am 07:15 Mostly Cloudy 54 12 54 12 100 100 SW 5 7 29.75 1008 10 16 0.00 0.00
7:35 am 07:35 Partly Cloudy 54 12 54 12 100 100 SSW 3 6 29.75 1008 10 16 0.00 0.00
7:55 am 07:55 Sunny 54 12 54 12 100 100 S 6 9 29.75 1008 10 16 0.00 0.00
8:15 am 08:15 Partly Cloudy 54 12 54 12 100 100 S 5 7 29.75 1008 10 16 0.00 0.00
8:35 am 08:35 Partly Cloudy 55 13 55 13 100 100 SSW 5 7 29.75 1007 10 16 0.00 0.00
8:55 am 08:55 Sunny 55 13 55 13 100 100 SSW 5 7 29.74 1007 10 16 0.00 0.00
9:15 am 09:15 Sunny 55 13 55 13 100 100 WSW 3 6 29.74 1007 10 16 0.00 0.00
9:35 am 09:35 Sunny 59 15 55 13 88 88 Calm 29.73 1007 10 16 0.00 0.00
9:55 am 09:55 Sunny 59 15 55 13 88 88 SSW 5 7 29.74 1007 10 16 0.00 0.00
10:15 am 10:15 Sunny 61 16 57 14 88 88 S 3 6 29.74 1007 10 16 0.00 0.00
10:35 am 10:35 Mostly Cloudy 61 16 57 14 88 88 WSW 5 7 29.73 1007 10 16 0.00 0.00
10:55 am 10:55 Mostly Cloudy 63 17 57 14 82 82 WSW 9 15 29.72 1006 10 16 0.00 0.00
11:15 am 11:15 Partly Cloudy 63 17 55 13 77 77 WSW 8 13 29.72 1006 10 16 0.00 0.00
11:35 am 11:35 Sunny 64 18 55 13 73 73 SW 6 9 29.71 1006 10 16 0.00 0.00
11:55 am 11:55 Partly Cloudy 66 19 55 13 68 68 WSW 9 15 29.69 1005 10 16 0.00 0.00
12:15 pm 12:15 Partly Cloudy 68 20 54 12 60 60 WSW 7 11 29.68 1005 10 16 0.00 0.00
12:35 pm 12:35 Partly Cloudy 68 20 54 12 60 60 SW 8 13 29.67 1005 10 16 0.00 0.00
12:55 pm 12:55 Mostly Cloudy 68 20 52 11 56 56 WSW 7 11 29.66 1004 10 16 0.00 0.00
1:15 pm 13:15 Cloudy 66 19 55 13 68 68 NNW 5 7 29.66 1004 10 16 0.00 0.00
1:35 pm 13:35 Mostly Cloudy 68 20 55 13 64 64 NNW 3 6 29.64 1004 10 16 0.00 0.00
1:55 pm 13:55 Mostly Cloudy 66 19 55 13 68 68 Calm 29.63 1003 10 16 0.00 0.00
2:15 pm 14:15 Cloudy 66 19 55 13 68 68 N 8 13 29.62 1003 10 16 0.00 0.00
2:35 pm 14:35 Cloudy 66 19 54 12 64 64 NNW 6 9 29.61 1003 10 16 0.00 0.00
2:55 pm 14:55 Cloudy 64 18 54 12 68 68 WNW 5 7 29.61 1003 10 16 0.00 0.00
3:15 pm 15:15 Cloudy 64 18 54 12 68 68 N 8 13 29.61 1003 10 16 0.00 0.00
3:35 pm 15:35 Cloudy 64 18 54 12 68 68 NNW 9 15 29.61 1003 10 16 0.00 0.00
3:55 pm 15:55 Mostly Cloudy 63 17 52 11 68 68 N 8 13 29.62 1003 10 16 0.00 0.00
4:15 pm 16:15 Mostly Cloudy 63 17 52 11 68 68 NNW 6 9 29.63 1003 10 16 0.00 0.00
4:35 pm 16:35 Cloudy 63 17 52 11 68 68 NNW 5 7 29.63 1003 10 16 0.00 0.00
4:55 pm 16:55 Cloudy 63 17 52 11 68 68 NNW 5 7 29.63 1003 10 16 0.00 0.00
5:15 pm 17:15 Mostly Cloudy 63 17 50 10 63 63 N 5 7 29.62 1003 10 16 0.00 0.00
5:35 pm 17:35 Partly Cloudy 63 17 50 10 63 63 NNW 3 6 29.62 1003 10 16 0.00 0.00
5:55 pm 17:55 Mostly Cloudy 61 16 52 11 72 72 NW 5 7 29.62 1003 10 16 0.00 0.00
6:15 pm 18:15 Mostly Cloudy 61 16 50 10 68 68 NNW 5 7 29.63 1003 10 16 0.00 0.00
6:35 pm 18:35 Cloudy 61 16 45 7 55 55 NW 7 11 29.63 1003 10 16 0.00 0.00
6:55 pm 18:55 Cloudy 59 15 43 6 55 55 WNW 8 13 29.63 1003 10 16 0.00 0.00
7:15 pm 19:15 Partly Cloudy 57 14 43 6 58 58 NW 6 9 29.64 1004 10 16 0.00 0.00
7:35 pm 19:35 Mostly Cloudy 59 15 41 5 51 51 NNW 9 15 29.66 1004 10 16 0.00 0.00
7:55 pm 19:55 Partly Cloudy 55 13 41 5 58 58 NNW 10 17 29.67 1005 10 16 0.00 0.00
8:15 pm 20:15 Clear 55 13 39 4 54 54 NNW 10 17 29.68 1005 10 16 0.00 0.00
8:35 pm 20:35 Clear 54 12 37 3 54 54 NW 16 26 29.68 1005 10 16 0.00 0.00
8:55 pm 20:55 Clear 54 12 37 3 54 54 NW 14 22 29.68 1005 10 16 0.00 0.00
9:15 pm 21:15 Clear 54 12 37 3 54 54 NW 12 19 29.69 1006 10 16 0.00 0.00
9:35 pm 21:35 Partly Cloudy 54 12 36 2 50 50 NNW 14 22 29.69 1006 10 16 0.00 0.00
9:55 pm 21:55 Clear 54 12 36 2 50 50 NW 14 22 29.70 1006 10 16 0.00 0.00
10:15 pm 22:15 Clear 52 11 34 1 50 50 NW 17 28 29.70 1006 10 16 0.00 0.00
10:35 pm 22:35 Clear 52 11 34 1 50 50 NNW 13 20 29.72 1006 10 16 0.00 0.00
10:55 pm 22:55 Clear 52 11 34 1 50 50 NW 14 22 29.72 1007 10 16 0.00 0.00
11:15 pm 23:15 Clear 52 11 32 0 47 47 NNW 14 22 29.74 1007 10 16 0.00 0.00
11:35 pm 23:35 Clear 50 10 32 0 50 50 NNW 12 19 29.74 1007 10 16 0.00 0.00
11:55 pm 23:55 Clear 50 10 32 0 50 50 NNW 6 9 29.75 1007 10 16 0.00 0.00

Powered by AerisWeather